Cleveland, OH

3:17 PM EST on February 20, 2018 (GMT -0500)
Cleveland-Hopkins International

Weather History for KCLE - February, 2013

Change the Weather History Date:

Wednesday, February 27, 2013

  Actual Average Record
Temperature  
Mean Temperature 38 °F 33 °F  
Max Temperature 42 °F 41 °F 66 °F (1996)
Min Temperature 33 °F 26 °F -10 °F (1963)
Degree Days  
Heating Degree Days 27 32  
Month to date heating degree days 1001 932  
Since 1 July heating degree days 4147 4184  
Cooling Degree Days 0 0  
Month to date cooling degree days 0 0  
Year to date cooling degree days 0 0  
Moisture  
Dew Point 35 °F    
Average Humidity 88    
Maximum Humidity 100    
Minimum Humidity 76    
Precipitation  
Precipitation 0.30 in 0.09 in 1.07 in (1997)
Month to date precipitation 2.27 2.25  
Year to date precipitation 4.44 4.97  
Snow  
Snow T in 0.50 in - ()
Month to date snowfall 19.4 14.4  
Since 1 July snowfall 40.3 51.7  
Snow Depth 0.00 in    
Sea Level Pressure  
Sea Level Pressure 29.60 in    
Wind  
Wind Speed 12 mph (SSW)    
Max Wind Speed 22 mph    
Max Gust Speed 29 mph    
Visibility 8 miles    
Events Rain , Snow    
T = Trace of Precipitation, MM = Missing Value Source: NWS Daily Summary

Daily Weather History Graph

Daily Weather History Graph

Search for Another Location

Airport or City:

Trip Planner

Search our weather history database for the weather conditions in past years. The results will help you decide how hot, cold, wet, or windy it might be!

Date:

Astronomy

Feb. 27, 2013 Rise Set
Actual Time 7:04 AM EST 6:16 PM EST
Civil Twilight 6:36 AM EST 6:43 PM EST
Nautical Twilight 6:04 AM EST 7:15 PM EST
Astronomical Twilight 5:32 AM EST 7:48 PM EST
Moon 8:38 PM EST (2/27) 7:37 AM EST (2/27)
Length of Visible Light 12h 07m
Length of Day
11h 11m
Waning Gibbous, 96% of the Moon is Illuminated
Feb 27
Waning Gibbous
Mar 4
Last Quarter
Mar 11
New
Mar 19
First Quarter
Mar 27
Full

Hourly Weather History & Observations

Time (EST) Temp. Windchill Dew Point Humidity Pressure Visibility Wind Dir Wind Speed Gust Speed Precip Events Conditions
12:00 AM 39.0 °F 29.9 °F 35.1 °F 86% 29.50 in 10.0 mi SE 17.3 mph 24.2 mph 0.00 in Rain Light Rain
12:51 AM 39.0 °F 30.3 °F 36.0 °F 89% 29.52 in 10.0 mi SE 16.1 mph - 0.00 in Rain Light Rain
1:51 AM 39.0 °F 31.0 °F 36.0 °F 89% 29.52 in 10.0 mi SSE 13.8 mph - 0.01 in Rain Light Rain
2:51 AM 39.0 °F 31.0 °F 37.0 °F 93% 29.52 in 10.0 mi SSE 13.8 mph 21.9 mph 0.03 in Rain Light Rain
3:22 AM 39.0 °F 31.8 °F 37.0 °F 93% 29.49 in 5.0 mi SSE 11.5 mph - 0.01 in Rain Light Rain
3:25 AM 39.0 °F 31.8 °F 37.0 °F 93% 29.50 in 5.0 mi SSE 11.5 mph - 0.01 in Rain Light Rain
3:51 AM 37.9 °F 30.9 °F 37.0 °F 97% 29.51 in 10.0 mi SSE 10.4 mph - 0.01 in Rain Light Rain
3:56 AM 37.9 °F 31.5 °F 37.0 °F 97% 29.50 in 10.0 mi SSE 9.2 mph - 0.00 in Rain Light Rain
4:24 AM 39.0 °F 33.4 °F 37.9 °F 96% 29.50 in 10.0 mi South 8.1 mph - 0.00 in Rain Light Rain
4:37 AM 39.0 °F 33.4 °F 37.0 °F 93% 29.50 in 9.0 mi South 8.1 mph - 0.00 in Rain Light Rain
4:51 AM 37.9 °F 30.9 °F 37.0 °F 97% 29.53 in 9.0 mi SSE 10.4 mph - 0.00 in Rain Light Rain
5:12 AM 39.0 °F 32.8 °F 37.9 °F 96% 29.52 in 5.0 mi SSE 9.2 mph - 0.02 in Rain Light Rain
5:51 AM 39.9 °F 35.1 °F 39.0 °F 97% 29.54 in 10.0 mi South 6.9 mph - 0.05 in Rain Light Rain
6:39 AM 39.9 °F 32.9 °F 37.9 °F 93% 29.54 in 10.0 mi SW 11.5 mph - 0.00 in Rain Light Rain
6:51 AM 39.2 °F 33.0 °F 37.4 °F 93% 29.54 in 10.0 mi SW 9.2 mph - N/A   Overcast
7:51 AM 39.0 °F 31.8 °F 36.0 °F 89% 29.58 in 10.0 mi SSW 11.5 mph - N/A   Overcast
8:51 AM 39.2 °F 30.8 °F 37.4 °F 93% 29.58 in 10.0 mi SSW 15.0 mph 23.0 mph N/A   Overcast
9:03 AM 41.0 °F 34.3 °F 37.9 °F 89% 29.58 in 10.0 mi SSW 11.5 mph - N/A   Overcast
9:51 AM 39.9 °F 32.9 °F 37.0 °F 89% 29.60 in 10.0 mi SSW 11.5 mph - 0.01 in Rain Light Rain
10:29 AM 41.0 °F 33.1 °F 37.9 °F 89% 29.59 in 10.0 mi SSW 15.0 mph 23.0 mph 0.00 in   Overcast
10:51 AM 41.0 °F 33.5 °F 37.0 °F 86% 29.61 in 10.0 mi SW 13.8 mph - 0.00 in   Overcast
11:51 AM 42.1 °F 34.2 °F 37.0 °F 82% 29.61 in 10.0 mi SSW 16.1 mph 23.0 mph N/A   Overcast
12:51 PM 42.1 °F 33.6 °F 36.0 °F 79% 29.60 in 10.0 mi SSW 18.4 mph - N/A   Overcast
1:08 PM 42.1 °F 35.7 °F 36.0 °F 79% 29.59 in 10.0 mi SSW 11.5 mph - N/A   Overcast
1:27 PM 41.0 °F 31.9 °F 35.1 °F 79% 29.59 in 10.0 mi SW 19.6 mph 27.6 mph 0.00 in Rain Light Rain
1:42 PM 41.0 °F 31.6 °F 35.1 °F 79% 29.59 in 10.0 mi WSW 20.7 mph - 0.00 in   Overcast
1:51 PM 39.9 °F 31.4 °F 35.1 °F 83% 29.61 in 9.0 mi SW 16.1 mph - 0.00 in Rain Light Rain
2:51 PM 39.0 °F 31.0 °F 36.0 °F 89% 29.62 in 8.0 mi SW 13.8 mph - 0.04 in Rain Light Rain
3:11 PM 37.9 °F 31.5 °F 36.0 °F 93% 29.61 in 7.0 mi WSW 9.2 mph - 0.02 in Rain Light Rain
3:51 PM 37.0 °F 27.0 °F 34.0 °F 89% 29.64 in 8.0 mi WSW 18.4 mph - 0.04 in Rain Light Rain
4:05 PM 36.0 °F 27.5 °F 34.0 °F 93% 29.62 in 10.0 mi SW 12.7 mph - 0.01 in Rain Light Rain
4:16 PM 37.0 °F 29.8 °F 34.0 °F 89% 29.62 in 10.0 mi SW 10.4 mph - 0.01 in Rain Light Rain
4:51 PM 36.0 °F 27.1 °F 33.1 °F 89% 29.65 in 9.0 mi SW 13.8 mph - 0.03 in Rain Light Rain
5:18 PM 35.1 °F 27.9 °F 33.1 °F 92% 29.63 in 6.0 mi SW 9.2 mph - 0.02 in Rain Light Rain
5:51 PM 35.1 °F 27.9 °F 33.1 °F 92% 29.65 in 7.0 mi SW 9.2 mph - 0.02 in Rain Light Rain
5:58 PM 35.1 °F 27.9 °F 33.1 °F 92% 29.64 in 8.0 mi SW 9.2 mph - 0.00 in Rain Light Rain
6:22 PM 34.0 °F 28.0 °F 33.1 °F 96% 29.64 in 7.0 mi SSW 6.9 mph - 0.01 in Rain , Snow Light Rain
6:51 PM 34.0 °F 27.2 °F 33.1 °F 96% 29.66 in 8.0 mi SSW 8.1 mph - 0.02 in Rain , Snow Light Rain
7:39 PM 34.0 °F 24.6 °F 32.0 °F 92% 29.65 in 10.0 mi SW 13.8 mph 19.6 mph 0.01 in Rain , Snow Light Rain
7:51 PM 34.0 °F 27.2 °F 32.0 °F 92% 29.67 in 10.0 mi SSW 8.1 mph - 0.01 in Rain , Snow Light Rain
7:58 PM 34.0 °F 26.6 °F 32.0 °F 92% 29.65 in 9.0 mi SSW 9.2 mph - 0.00 in Rain , Snow Light Rain
8:10 PM 34.0 °F 28.0 °F 33.1 °F 96% 29.65 in 9.0 mi SSW 6.9 mph - 0.00 in Rain , Snow Light Rain
8:16 PM 34.0 °F 26.6 °F 33.1 °F 96% 29.65 in 9.0 mi SSW 9.2 mph - 0.00 in Rain , Snow Light Rain
8:25 PM 34.0 °F 27.2 °F 33.1 °F 96% 29.65 in 9.0 mi SSW 8.1 mph - 0.00 in Rain , Snow Light Rain
8:41 PM 34.0 °F 28.0 °F 33.1 °F 96% 29.65 in 10.0 mi SSW 6.9 mph - 0.00 in Rain , Snow Light Rain
8:51 PM 34.0 °F 26.6 °F 33.1 °F 96% 29.66 in 9.0 mi SSW 9.2 mph - 0.00 in Rain , Snow Light Rain
9:04 PM 34.0 °F 27.2 °F 32.0 °F 92% 29.64 in 8.0 mi SSW 8.1 mph - 0.00 in Rain , Snow Light Rain
9:25 PM 33.1 °F 25.5 °F 32.0 °F 96% 29.64 in 6.0 mi SSW 9.2 mph - 0.00 in Snow Light Snow
9:32 PM 33.1 °F 23.9 °F 32.0 °F 96% 29.64 in 6.0 mi SW 12.7 mph - 0.00 in Snow Light Snow
9:51 PM 33.1 °F 25.5 °F 30.9 °F 92% 29.66 in 4.0 mi SSW 9.2 mph - 0.00 in Snow Light Snow
10:01 PM 33.1 °F 25.5 °F 32.0 °F 96% 29.64 in 4.0 mi SSW 9.2 mph - 0.00 in Snow Light Snow
10:51 PM 33.1 °F 25.5 °F 30.9 °F 92% 29.65 in 5.0 mi SW 9.2 mph - 0.01 in Snow Light Snow
10:58 PM 33.1 °F 23.9 °F 30.9 °F 92% 29.63 in 5.0 mi SW 12.7 mph - 0.00 in Snow Light Snow
11:15 PM 33.1 °F 24.9 °F 30.9 °F 92% 29.62 in 8.0 mi SSW 10.4 mph - 0.00 in Snow Light Snow
11:30 PM 33.1 °F 23.9 °F 30.9 °F 92% 29.61 in 9.0 mi SSW 12.7 mph - 0.00 in Snow Light Snow
11:51 PM 33.1 °F 26.1 °F 30.9 °F 92% 29.63 in 9.0 mi SSW 8.1 mph - 0.00 in Snow Light Snow